Content
SEND FEEDBACK

Daily
Averages
Monthly
Summary
United States of America

CHICAGO, ILLINOIS


Home > North America > United States > Illinois
Elevation: 674 feet     Latitude: 41 59N     Longitude: 087 54W

WEATHER
 
SELECT A DAY
Number of Records: 194,860;   Date Range: 7/8/95 - 7/26/14
 
SHARE

PRINT THIS DATA

[ ← Previous Day ]
WEATHER ALMANAC - SEPTEMBER 15, 2013
[ Next Day → ]
[ °C ]   °F
Weather ElementAverageHighLow
Temperature58.4 °F62.6 °F (11:25 pm)55.4 °F (8:09 am)
Dewpoint53.3 °F57.2 °F (10:19 pm)41 °F (2:52 am)
Humidity84.3 %94 % (10:34 am)48 % (2:52 am)
Barometer30.08 in30.18 in (11:52 pm)30.02 in (1:52 pm)
Wind Speed3.9 mph10.4 mph (11:52 pm)
Weather ElementAverage
Visibility6.2 mi
Wind DirectionSE (133.1 °)

Weather ElementTotal
Precipitation1.58 in
Heating Degree Days6 (Base 65)
Growing Degree Days9 (Base 50)
Averaged from 45 records on September 15, 2013
WEATHER CONDITIONS BREAKOUT
WIND DIRECTION BREAKOUT
WEATHER BY HOUR - SEPTEMBER 15, 2013
[ °C ]   °F
Local TimeTemperatureDewpointHumidityBarometerVisibilityWind DirectionWind SpeedGust SpeedPrecipitationEventsConditions
1:52 AM57.9 °F42.1 °F56 %30.04 in10.0 miSouth (180°)4.6 mphClear
2:52 AM61.0 °F41.0 °F48 %30.04 in10.0 miSSW (210°)5.8 mphClear
3:52 AM61.0 °F42.1 °F50 %30.06 in10.0 miSouth (190°)3.5 mphClear
4:52 AM61.0 °F43.0 °F52 %30.06 in10.0 miSouth (180°)3.5 mphPartly Cloudy
5:52 AM61.0 °F45.0 °F56 %30.06 in10.0 miSouth (190°)3.5 mphMostly Cloudy
6:52 AM59.0 °F48.0 °F67 %30.06 in8.0 miCalm0.02 inRainLight Rain
7:52 AM55.9 °F52.0 °F87 %30.07 in5.0 miCalm0.07 inRainLight Rain
8:09 AM55.4 °F50.0 °F82 %30.06 in2.0 miCalm0.04 inRainLight Rain
8:17 AM55.4 °F51.8 °F88 %30.05 in6.0 miCalm0.05 inRainLight Rain
8:52 AM55.9 °F52.0 °F87 %30.07 in6.0 miNorth (350°)3.5 mph0.11 inRainLight Rain
9:52 AM55.9 °F52.0 °F87 %30.06 in6.0 miESE (110°)3.5 mph0.11 inRainLight Rain
10:28 AM55.4 °F51.8 °F88 %30.05 in1.8 miEast (90°)4.6 mph0.13 inRainRain
10:34 AM55.4 °F53.6 °F94 %30.05 in3.0 miESE (110°)4.6 mph0.14 inRainLight Rain
10:42 AM55.4 °F53.6 °F94 %30.05 in2.0 miESE (120°)4.6 mph0.15 inRainLight Rain
10:52 AM55.9 °F53.1 °F90 %30.05 in4.0 miSE (130°)4.6 mph0.17 inRainLight Rain
11:52 AM57.0 °F53.1 °F87 %30.06 in5.0 miSSE (150°)5.8 mph0.08 inRainLight Rain
12:52 PM57.0 °F54.0 °F89 %30.04 in6.0 miSSE (150°)6.9 mph0.01 inRainLight Rain
1:52 PM57.9 °F55.0 °F90 %30.02 in6.0 miEast (80°)3.5 mph0.04 inRainLight Rain
2:30 PM57.2 °F55.4 °F94 %30.06 in2.0 miNorth (10°)4.6 mph0.02 inRainLight Rain
2:52 PM57.9 °F55.0 °F90 %30.03 in2.0 miSE (130°)8.1 mph0.17 inRainRain
3:31 PM57.2 °F55.4 °F94 %30.05 in2.0 miSE (140°)3.5 mph0.08 inRainLight Rain
3:52 PM57.9 °F55.0 °F90 %30.05 in2.0 miCalm0.11 inRainLight Rain
3:59 PM57.2 °F55.4 °F94 %30.05 in4.0 miCalm0.00 inRainLight Rain
4:34 PM59.0 °F55.4 °F88 %30.05 in2.5 miSouth (190°)3.5 mph0.02 inRainLight Rain
4:42 PM59.0 °F55.4 °F88 %30.05 in3.0 miCalm0.03 inRainLight Rain
4:52 PM59.0 °F55.9 °F90 %30.05 in4.0 miCalm0.03 inRainLight Rain
5:01 PM59.0 °F55.4 °F88 %30.06 in3.0 miCalm0.00 inRainLight Rain
5:14 PM59.0 °F55.4 °F88 %30.06 in3.0 miCalm0.00 inOvercast
5:39 PM59.0 °F55.4 °F88 %30.07 in5.0 miCalm0.00 inOvercast
5:52 PM59.0 °F55.9 °F90 %30.07 in4.0 miCalm0.00 inOvercast
6:34 PM59.0 °F55.4 °F88 %30.08 in7.0 miNNW (340°)5.8 mphMostly Cloudy
6:52 PM57.9 °F55.0 °F90 %30.09 in7.0 miNorth (350°)3.5 mphScattered Clouds
7:19 PM57.2 °F55.4 °F94 %30.09 in8.0 miNNW (340°)4.6 mphOvercast
7:52 PM59.0 °F55.9 °F90 %30.11 in9.0 miNNW (340°)3.5 mphOvercast
8:33 PM59.0 °F55.4 °F88 %30.12 in10.0 miNNE (20°)4.6 mphOvercast
8:52 PM59.0 °F55.9 °F90 %30.13 in9.0 miNorth (350°)5.8 mphOvercast
9:07 PM59.0 °F55.4 °F88 %30.14 in9.0 miNorth (350°)5.8 mphOvercast
9:36 PM59.0 °F55.4 °F88 %30.14 in9.0 miNorth (360°)5.8 mphOvercast
9:52 PM59.0 °F55.9 °F90 %30.14 in8.0 miNorth (360°)4.6 mphOvercast
10:19 PM59.0 °F57.2 °F94 %30.15 in5.0 miNorth (360°)5.8 mph0.00 inRainLight Rain
10:48 PM60.8 °F57.2 °F88 %30.16 in10.0 miNNE (20°)9.2 mph0.00 inOvercast
10:52 PM61.0 °F57.0 °F87 %30.16 in10.0 miNorth (10°)9.2 mph0.00 inOvercast
11:25 PM62.6 °F57.2 °F82 %30.17 in10.0 miNNE (20°)8.1 mph0.00 inOvercast
11:34 PM62.6 °F57.2 °F82 %30.17 in10.0 miNNE (30°)8.1 mph0.00 inOvercast
11:52 PM62.1 °F55.9 °F80 %30.18 in10.0 miNNE (30°)10.4 mph0.00 inOvercast
Hourly data recorded from KPWK, located miles away from Chicago, Illinois







STORIES FROM OUR PARTNERS